Weather in Orizaba

Mexico     18°50′44″N   97°06′19″W
temp.,
°C
wind,
m/s
gust,
m/s
humid.,
%
clouds,
%
prec.,
mm/h
press.,
hPa
HPBL,
m
16 may, sun
sun1601:00+18w0095100 0.5 101874
04:00+16w1193100 0.1 101723
07:00+16wsw2189100 0.3 101724
10:00+22s126297 0.1 1016566
13:00+24e1157100 0.1 1015749
16:00+25ene3259100 0.0 10131061
19:00+21e127797 0.3 1014334
22:00+18sw119332 0.6 101640
17 may, mon
mon1701:00+18wsw1189100 1.6 101617
04:00+17wsw218356 0.4 101425
07:00+17wsw22829 0.6 101532
10:00+25ese11501 0.0 1013710
13:00+28ene324813 0.0 10121565
16:00+23wsw2271100 5.6 1012658
19:00+20sw1282100 10.2 1013103
22:00+16sw359140 4.5 1016129
18 may, tue
tue1801:00+16wsw348592 4.6 101575
04:00+16wsw338437 0.0 101359
07:00+16wsw22775 0.0 101441
10:00+26e12454 0.0 1012807
13:00+29e33380 0.0 10101759
16:00+28e224726 0.3 10091339
19:00+22ssw117154 1.8 101026
22:00+18sw249451 15.8 1013121
19 may, wed
wed1901:00+18wsw3587100 16.3 1012112
04:00+17wsw33865 0.0 101154
07:00+17wsw23812 0.0 101243
10:00+26se02480 0.0 1010826
13:00+29e334221 0.1 10091744
16:00+26ene225892 1.4 1008944
19:00+22w118159 4.1 100840
22:00+17sw119679 5.1 101339
20 may, thu
thu2001:00+17w34937 7.8 101384
04:00+16wsw349077 1.6 101161
07:00+16wsw34882 1.9 101256
10:00+24ene12552 0.0 1011654
13:00+27ene324820 0.0 10101325
16:00+24e126495 2.4 10091174
19:00+19ne249199 9.9 1012196
22:00+16wsw2394100 4.2 101585